Weather History for Fort Campbell, KY

Change the Weather History Date:

Wednesday, November 21, 2012

  Actual Average Record
Temperature  
Mean Temperature 52 °F -  
Max Temperature 63 °F 56 °F 73 °F (2003)
Min Temperature 38 °F 36 °F 19 °F (2000)
Degree Days  
Heating Degree Days 12    
Growing Degree Days 2 (Base 50)    
Moisture  
Dew Point 43 °F    
Average Humidity 74    
Maximum Humidity 99    
Minimum Humidity 44    
Precipitation  
Precipitation 0.00 in - - ()
Sea Level Pressure  
Sea Level Pressure 30.22 in    
Wind  
Wind Speed 2 mph (North)    
Max Wind Speed 10 mph    
Max Gust Speed -    
Visibility 9 miles    
Events      
Averages and records for this station are not official NWS values.
T = Trace of Precipitation, MM = Missing Value Source: NWS Daily Summary

Daily Weather History Graph

Daily Weather History Graph

Search for Another Location

Airport:

Trip Planner

Search our weather history database for the weather conditions in past years. The results will help you decide how hot, cold, wet, or windy it might be!

Date:

Astronomy

Nov. 21, 2012 Rise Set
Actual Time 6:34 AM CST 4:37 PM CST
Civil Twilight 6:06 AM CST 5:05 PM CST
Nautical Twilight 5:34 AM CST 5:36 PM CST
Astronomical Twilight 5:04 AM CST 6:07 PM CST
Moon 12:44 PM CST (11/21) 12:02 AM CST (11/21)
Length of Visible Light 10h 58m
Length of Day
10h 02m
First Quarter, 62% of the Moon is Illuminated
Nov 21
First Quarter
Nov 28
Full
Dec 6
Last Quarter
Dec 13
New
Dec 19
First Quarter

Hourly Weather History & Observations

Time (CST) Temp. Dew Point Humidity Pressure Visibility Wind Dir Wind Speed Gust Speed Precip Events Conditions
12:55 AM 51.8 °F 46.9 °F 83% 30.14 in 10.0 mi Calm Calm - N/A   Clear
1:55 AM 49.8 °F 46.4 °F 88% 30.14 in 10.0 mi Calm Calm - N/A   Clear
2:23 AM 50.0 °F 42.8 °F 76% 30.26 in 6.0 mi NNW 2.3 mph - N/A   Clear
2:35 AM 51.8 °F 42.8 °F 71% 30.26 in 6.0 mi Variable 3.5 mph - N/A   Clear
2:55 AM 47.8 °F 45.5 °F 92% 30.16 in 10.0 mi Variable 3.5 mph - N/A   Clear
3:55 AM 47.7 °F 45.5 °F 92% 30.17 in 10.0 mi Calm Calm - N/A   Clear
4:29 AM 59.0 °F 44.6 °F 59% 30.25 in 9.0 mi NNE 5.8 mph - N/A   Clear
4:35 AM 59.0 °F 44.6 °F 59% 30.25 in 10.0 mi Variable 3.5 mph - N/A   Clear
4:55 AM 46.2 °F 45.3 °F 97% 30.19 in 10.0 mi Calm Calm - N/A   Clear
5:55 AM 45.7 °F 45.5 °F 99% 30.21 in 10.0 mi Calm Calm - N/A   Clear
6:55 AM 45.0 °F 44.6 °F 99% 30.22 in 7.0 mi Calm Calm - N/A   Clear
7:55 AM 48.0 °F 46.2 °F 93% 30.24 in 8.0 mi Calm Calm - N/A   Clear
8:55 AM 52.5 °F 46.9 °F 81% 30.25 in 10.0 mi Variable 3.5 mph - N/A   Clear
9:55 AM 56.3 °F 47.1 °F 71% 30.26 in 10.0 mi NE 8.1 mph - N/A   Clear
10:39 AM 59.0 °F 44.6 °F 59% 30.25 in 9.0 mi North 4.6 mph - N/A   Clear
10:55 AM 59.4 °F 46.0 °F 61% 30.25 in 10.0 mi NE 10.4 mph - N/A   Clear
11:55 AM 61.9 °F 43.9 °F 52% 30.24 in 10.0 mi Variable 4.6 mph - N/A   Clear
12:55 PM 62.4 °F 42.6 °F 48% 30.22 in 10.0 mi Variable 4.6 mph - N/A   Partly Cloudy
1:55 PM 63.3 °F 41.2 °F 44% 30.20 in 10.0 mi Variable 3.5 mph - N/A   Clear
2:55 PM 62.4 °F 41.0 °F 45% 30.21 in 10.0 mi Variable 3.5 mph - N/A   Clear
3:55 PM 61.2 °F 41.7 °F 49% 30.21 in 10.0 mi Variable 3.5 mph - N/A   Clear
4:55 PM 57.0 °F 41.5 °F 56% 30.22 in 10.0 mi NNW 1.2 mph - N/A   Clear
5:55 PM 50.9 °F 41.2 °F 69% 30.23 in 10.0 mi North 1.2 mph - N/A   Clear
6:55 PM 46.2 °F 39.7 °F 78% 30.23 in 9.0 mi Calm Calm - N/A   Clear
7:55 PM 46.2 °F 39.6 °F 78% 30.23 in 8.0 mi Calm Calm - N/A   Clear
8:55 PM 44.8 °F 38.8 °F 80% 30.23 in 6.0 mi SSW 2.3 mph - N/A   Clear
9:55 PM 43.0 °F 38.7 °F 85% 30.22 in 6.0 mi SSW 1.2 mph - N/A   Clear
10:55 PM 42.4 °F 38.1 °F 85% 30.22 in 6.0 mi West 1.2 mph - N/A   Clear
11:55 PM 38.7 °F 35.8 °F 89% 30.22 in 3.0 mi North 1.2 mph - N/A   Clear